Погода в Устье

Россия / Тульская область     53°39′11″N   38°47′10″E
темп.,
°C
ветер,
м/с
пор.,
м/с
влажн.,
%
обл.,
%
осадки,
мм/ч
давл.,
гПа
погр.,
м
14 мая, пт
пт1400:00+10юв229148 0.0 101723
03:00+10вюв229297 0.0 101714
06:00+11в2393100 0.0 101758
09:00+16вюв458069 0.0 1016395
12:00+21юв5768100 0.0 10151067
15:00+22ююв71267100 0.3 10131506
18:00+20ю6127059 0.1 1012650
21:00+16ююв41089100 0.1 1012169
15 мая, сб
сб1500:00+15ю3393100 0.7 101133
03:00+14вюв119463 4.4 101111
06:00+15юв489690 2.2 1010202
09:00+19ю5685100 2.3 1010406
12:00+20ююз477783 2.0 1011719
15:00+22ююз69585 2.1 10111698
18:00+20ююз596993 0.4 1011438
21:00+15ююз49835 0.4 1012171
16 мая, вс
вс1600:00+14ююз498730 0.0 1013170
03:00+13ююз37927 0.0 1014137
06:00+13ююз379087 0.0 1014161
09:00+18ююз467069 0.0 1015547
12:00+21ююз45603 0.0 10151221
15:00+22ююз46520 0.3 10141962
18:00+22ююз23628 0.0 1013316
21:00+17в2268100 0.0 101411
17 мая, пн
пн1700:00+17в347481 0.0 101479
03:00+15в358971 0.0 101493
06:00+15в499292 0.0 1013209
09:00+20в697190 0.0 1013430
12:00+24юв685899 0.0 1012811
15:00+26юв585730 0.0 10111165
18:00+23вюв511668 0.0 1010428
21:00+19юв5157987 0.0 1010380
18 мая, вт
вт1800:00+18юв616725 0.0 1009427
03:00+16юв41178100 0.0 1009223
06:00+15юв388234 0.0 1009189
09:00+20юв476371 0.0 1009440
12:00+23ююв71060100 0.0 10091137
15:00+22ююз797190 0.9 10091141
18:00+19зюз478093 1.0 1010548
21:00+16юв2294100 4.0 101122